| time (UTC) | temp C | wind direction | speed KPH | gust KPH | rain 1hr cm | rain 24hr cm | rain mn cm | humidity % | barometer mb |
| 20260505080303 | 7 | 284 | 0.0 | 0.0 | 0.00 | 0.00 | 0.00 | 80 | 1006.7 |
| 20260505075758 | 7 | 284 | 0.0 | 0.0 | 0.00 | 0.00 | 0.00 | 79 | 1006.6 |
| 20260505075256 | 7 | 284 | 0.0 | 0.0 | 0.00 | 0.00 | 0.00 | 79 | 1006.5 |
| 20260505074753 | 7 | 284 | 0.0 | 0.0 | 0.00 | 0.00 | 0.00 | 79 | 1006.4 |
| 20260505074250 | 7 | 284 | 0.0 | 0.0 | 0.00 | 0.00 | 0.00 | 79 | 1006.7 |
| 20260505073747 | 8 | 284 | 0.0 | 0.0 | 0.00 | 0.00 | 0.00 | 79 | 1006.4 |
| 20260505073245 | 8 | 284 | 0.0 | 0.0 | 0.00 | 0.00 | 0.00 | 78 | 1006.3 |
| 20260505072742 | 8 | 284 | 0.0 | 0.0 | 0.00 | 0.00 | 0.00 | 78 | 1006.4 |
| 20260505072238 | 8 | 284 | 0.0 | 0.0 | 0.00 | 0.00 | 0.00 | 77 | 1006.5 |
| 20260505071733 | 8 | 284 | 0.0 | 0.0 | 0.00 | 0.00 | 0.00 | 76 | 1006.4 |
| 20260505071231 | 8 | 284 | 0.0 | 0.0 | 0.00 | 0.00 | 0.00 | 75 | 1006.4 |
| 20260505070728 | 8 | 284 | 0.0 | 0.0 | 0.00 | 0.00 | 0.00 | 75 | 1006.3 |
| 20260505070224 | 8 | 284 | 0.0 | 0.0 | 0.00 | 0.00 | 0.00 | 75 | 1006.2 |
| 20260505065720 | 8 | 284 | 0.0 | 0.0 | 0.00 | 0.00 | 0.00 | 75 | 1006.5 |
| 20260505065217 | 8 | 284 | 0.0 | 0.0 | 0.00 | 0.00 | 0.00 | 75 | 1006.3 |
| 20260505064714 | 8 | 284 | 0.0 | 0.0 | 0.00 | 0.00 | 0.00 | 75 | 1006.4 |
| 20260505064212 | 8 | 284 | 0.0 | 0.0 | 0.00 | 0.00 | 0.00 | 75 | 1006.6 |
| 20260505063709 | 8 | 284 | 0.0 | 0.0 | 0.00 | 0.00 | 0.00 | 76 | 1006.4 |
| 20260505063205 | 8 | 284 | 0.0 | 0.0 | 0.00 | 0.00 | 0.00 | 77 | 1006.5 |
| 20260505062701 | 8 | 284 | 0.0 | 0.0 | 0.00 | 0.00 | 0.00 | 77 | 1006.4 |
| 20260505062200 | 8 | 284 | 0.0 | 0.0 | 0.00 | 0.00 | 0.00 | 77 | 1006.4 |
| 20260505061656 | 8 | 284 | 0.0 | 0.0 | 0.00 | 0.00 | 0.00 | 77 | 1006.4 |
| 20260505061154 | 8 | 284 | 0.0 | 0.0 | 0.00 | 0.00 | 0.00 | 76 | 1006.4 |
| 20260505060651 | 8 | 284 | 0.0 | 0.0 | 0.00 | 0.00 | 0.00 | 76 | 1006.3 |
| 20260505060148 | 8 | 284 | 0.0 | 0.0 | 0.00 | 0.00 | 0.00 | 75 | 1006.6 |
| 20260505055643 | 8 | 284 | 0.0 | 0.0 | 0.00 | 0.00 | 0.00 | 75 | 1006.5 |
| 20260505055140 | 9 | 284 | 0.0 | 0.0 | 0.00 | 0.00 | 0.00 | 74 | 1006.4 |
| 20260505054638 | 9 | 284 | 0.0 | 0.0 | 0.00 | 0.00 | 0.00 | 74 | 1006.4 |
| 20260505054136 | 9 | 284 | 0.0 | 0.0 | 0.00 | 0.00 | 0.00 | 74 | 1006.4 |
| 20260505053633 | 10 | 284 | 0.0 | 0.0 | 0.00 | 0.00 | 0.00 | 73 | 1006.5 |
| 20260505053129 | 10 | 284 | 0.0 | 0.0 | 0.00 | 0.00 | 0.00 | 71 | 1006.4 |
| 20260505052626 | 10 | 284 | 0.0 | 0.0 | 0.00 | 0.00 | 0.00 | 70 | 1006.5 |
| 20260505052124 | 10 | 284 | 0.0 | 0.0 | 0.00 | 0.00 | 0.00 | 68 | 1006.3 |
| 20260505051621 | 10 | 284 | 0.0 | 0.0 | 0.00 | 0.00 | 0.00 | 67 | 1006.3 |
| 20260505051119 | 11 | 284 | 0.0 | 0.0 | 0.00 | 0.00 | 0.00 | 66 | 1006.4 |
| 20260505050616 | 11 | 284 | 0.0 | 1.6 | 0.00 | 0.00 | 0.00 | 65 | 1006.2 |
| 20260505050114 | 11 | 284 | 0.0 | 1.6 | 0.00 | 0.00 | 0.00 | 65 | 1006.4 |
| 20260505041544 | 12 | 284 | 0.0 | 0.0 | 0.00 | 0.00 | 0.00 | 60 | 1005.9 |
| 20260505041041 | 12 | 284 | 0.0 | 0.0 | 0.00 | 0.00 | 0.00 | 58 | 1006.0 |
| 20260505040538 | 12 | 284 | 0.0 | 0.0 | 0.00 | 0.00 | 0.00 | 58 | 1006.0 |
| 20260505040036 | 12 | 284 | 0.0 | 0.0 | 0.00 | 0.00 | 0.00 | 57 | 1005.8 |
| 20260505035531 | 11 | 284 | 0.0 | 0.0 | 0.00 | 0.00 | 0.00 | 61 | 1005.6 |
| 20260505035028 | 11 | 284 | 0.0 | 1.6 | 0.00 | 0.00 | 0.00 | 64 | 1005.5 |
| 20260505034525 | 11 | 284 | 0.0 | 0.0 | 0.00 | 0.00 | 0.00 | 66 | 1005.5 |
| 20260505034022 | 11 | 284 | 0.0 | 0.0 | 0.00 | 0.00 | 0.00 | 66 | 1005.6 |
| 20260505033519 | 11 | 284 | 0.0 | 0.0 | 0.00 | 0.00 | 0.00 | 65 | 1005.5 |
| 20260505033017 | 11 | 284 | 0.0 | 0.0 | 0.00 | 0.00 | 0.00 | 65 | 1005.6 |
| 20260505032514 | 11 | 284 | 0.0 | 0.0 | 0.00 | 0.00 | 0.00 | 67 | 1005.5 |
| 20260505032010 | 11 | 284 | 0.0 | 0.0 | 0.00 | 0.00 | 0.00 | 64 | 1005.7 |
| 20260505031508 | 11 | 284 | 0.0 | 0.0 | 0.00 | 0.00 | 0.00 | 65 | 1005.4 |
| 20260505031004 | 10 | 284 | 0.0 | 0.0 | 0.00 | 0.00 | 0.00 | 66 | 1005.3 |
| 20260505030501 | 10 | 284 | 0.0 | 0.0 | 0.00 | 0.00 | 0.00 | 67 | 1005.4 |
| 20260505025955 | 11 | 284 | 0.0 | 0.0 | 0.00 | 0.00 | 0.00 | 65 | 1005.2 |
| 20260505025453 | 11 | 284 | 0.0 | 0.0 | 0.00 | 0.00 | 0.00 | 63 | 1005.4 |
| 20260505024952 | 11 | 284 | 0.0 | 0.0 | 0.00 | 0.00 | 0.00 | 65 | 1005.2 |
| 20260505024449 | 11 | 284 | 0.0 | 0.0 | 0.00 | 0.00 | 0.00 | 65 | 1005.3 |
| 20260505023946 | 10 | 284 | 0.0 | 0.0 | 0.00 | 0.00 | 0.00 | 65 | 1005.5 |
| 20260505023443 | 10 | 284 | 0.0 | 0.0 | 0.00 | 0.00 | 0.00 | 66 | 1005.4 |
| 20260505022940 | 10 | 284 | 0.0 | 0.0 | 0.00 | 0.00 | 0.00 | 67 | 1005.3 |
| 20260505022438 | 11 | 284 | 0.0 | 0.0 | 0.00 | 0.00 | 0.00 | 67 | 1005.5 |
| 20260505021935 | 11 | 284 | 0.0 | 0.0 | 0.00 | 0.00 | 0.00 | 65 | 1005.6 |
| 20260505021431 | 10 | 284 | 0.0 | 0.0 | 0.00 | 0.00 | 0.00 | 65 | 1005.2 |
| 20260505020927 | 10 | 284 | 0.0 | 0.0 | 0.00 | 0.00 | 0.00 | 67 | 1005.3 |
| 20260505020422 | 10 | 284 | 0.0 | 0.0 | 0.00 | 0.00 | 0.00 | 67 | 1005.4 |
| 20260505015919 | 10 | 284 | 0.0 | 0.0 | 0.00 | 0.00 | 0.00 | 68 | 1005.2 |
| 20260505015417 | 10 | 284 | 0.0 | 0.0 | 0.00 | 0.00 | 0.00 | 70 | 1005.3 |
| 20260505014914 | 11 | 284 | 0.0 | 3.2 | 0.00 | 0.00 | 0.00 | 67 | 1005.3 |
| 20260505014411 | 11 | 284 | 0.0 | 0.0 | 0.00 | 0.00 | 0.00 | 64 | 1005.4 |
| 20260505013908 | 11 | 284 | 0.0 | 0.0 | 0.00 | 0.00 | 0.00 | 63 | 1005.1 |
| 20260505013404 | 11 | 284 | 0.0 | 0.0 | 0.00 | 0.00 | 0.00 | 62 | 1005.0 |
| 20260505012903 | 11 | 284 | 0.0 | 0.0 | 0.00 | 0.00 | 0.00 | 63 | 1005.0 |
| 20260505012400 | 11 | 284 | 0.0 | 0.0 | 0.00 | 0.00 | 0.00 | 63 | 1005.0 |
| 20260505011856 | 11 | 284 | 0.0 | 0.0 | 0.00 | 0.00 | 0.00 | 62 | 1005.1 |
| 20260505011353 | 11 | 284 | 0.0 | 0.0 | 0.00 | 0.00 | 0.00 | 63 | 1005.0 |
| 20260505010849 | 11 | 284 | 0.0 | 0.0 | 0.00 | 0.00 | 0.00 | 62 | 1004.9 |
| 20260505010345 | 11 | 284 | 0.0 | 0.0 | 0.00 | 0.00 | 0.00 | 63 | 1004.8 |
| 20260505005842 | 11 | 284 | 0.0 | 0.0 | 0.00 | 0.00 | 0.00 | 62 | 1004.8 |
| 20260505005338 | 11 | 284 | 0.0 | 0.0 | 0.00 | 0.00 | 0.00 | 62 | 1004.6 |
| 20260505004836 | 11 | 284 | 0.0 | 0.0 | 0.00 | 0.00 | 0.00 | 62 | 1004.5 |
| 20260505004332 | 11 | 284 | 0.0 | 0.0 | 0.00 | 0.00 | 0.00 | 61 | 1004.8 |
| 20260505003830 | 11 | 284 | 0.0 | 0.0 | 0.00 | 0.00 | 0.00 | 61 | 1004.7 |
| 20260505003327 | 11 | 284 | 0.0 | 0.0 | 0.00 | 0.00 | 0.00 | 61 | 1004.5 |
| 20260505002822 | 11 | 284 | 0.0 | 0.0 | 0.00 | 0.00 | 0.00 | 61 | 1004.0 |
| 20260505002320 | 12 | 284 | 0.0 | 0.0 | 0.00 | 0.00 | 0.00 | 60 | 1004.2 |
| 20260505001818 | 12 | 284 | 0.0 | 0.0 | 0.00 | 0.00 | 0.00 | 59 | 1004.2 |
| 20260505001315 | 12 | 284 | 0.0 | 0.0 | 0.00 | 0.00 | 0.00 | 59 | 1004.2 |
| 20260505000812 | 12 | 284 | 0.0 | 0.0 | 0.00 | 0.00 | 0.00 | 59 | 1004.0 |
| 20260505000310 | 12 | 284 | 0.0 | 0.0 | 0.00 | 0.00 | 0.00 | 57 | 1004.0 |
| 20260504235806 | 12 | 284 | 0.0 | 0.0 | 0.00 | 0.00 | 0.00 | 57 | 1004.1 |
| 20260504235304 | 12 | 284 | 0.0 | 0.0 | 0.00 | 0.00 | 0.00 | 55 | 1003.7 |
| 20260504234800 | 13 | 284 | 0.0 | 0.0 | 0.00 | 0.00 | 0.00 | 55 | 1003.8 |
| 20260504234258 | 13 | 284 | 0.0 | 0.0 | 0.00 | 0.00 | 0.00 | 55 | 1003.8 |
| 20260504233753 | 13 | 284 | 0.0 | 0.0 | 0.00 | 0.00 | 0.00 | 53 | 1003.6 |
| 20260504233249 | 14 | 284 | 0.0 | 0.0 | 0.00 | 0.00 | 0.00 | 53 | 1003.7 |
| 20260504232746 | 15 | 284 | 0.0 | 0.0 | 0.00 | 0.00 | 0.00 | 52 | 1003.6 |
| 20260504232243 | 15 | 284 | 0.0 | 0.0 | 0.00 | 0.00 | 0.00 | 50 | 1003.5 |
| 20260504231740 | 15 | 284 | 0.0 | 0.0 | 0.00 | 0.00 | 0.00 | 48 | 1003.5 |
| 20260504231237 | 16 | 284 | 0.0 | 0.0 | 0.00 | 0.00 | 0.00 | 47 | 1003.6 |
| 20260504230732 | 16 | 284 | 0.0 | 0.0 | 0.00 | 0.00 | 0.00 | 44 | 1003.2 |
| 20260504230231 | 17 | 284 | 0.0 | 0.0 | 0.00 | 0.00 | 0.00 | 41 | 1003.1 |
| 20260504225730 | 17 | 284 | 0.0 | 1.6 | 0.00 | 0.00 | 0.00 | 41 | 1003.2 |
| 20260504225226 | 17 | 284 | 0.0 | 0.0 | 0.00 | 0.00 | 0.00 | 40 | 1003.2 |
| 20260504224723 | 18 | 284 | 0.0 | 0.0 | 0.00 | 0.00 | 0.00 | 40 | 1003.0 |
| 20260504224220 | 18 | 284 | 1.6 | 1.6 | 0.00 | 0.00 | 0.00 | 33 | 1002.9 |
| 20260504223716 | 18 | 284 | 0.0 | 3.2 | 0.00 | 0.00 | 0.00 | 35 | 1003.0 |
| 20260504223212 | 18 | 284 | 1.6 | 4.8 | 0.00 | 0.00 | 0.00 | 35 | 1003.2 |
| 20260504222709 | 18 | 284 | 0.0 | 1.6 | 0.00 | 0.00 | 0.00 | 37 | 1003.1 |
| 20260504222206 | 18 | 284 | 0.0 | 0.0 | 0.00 | 0.00 | 0.00 | 37 | 1003.1 |
| 20260504221703 | 18 | 284 | 0.0 | 0.0 | 0.00 | 0.00 | 0.00 | 35 | 1002.9 |
| 20260504221200 | 18 | 284 | 0.0 | 0.0 | 0.00 | 0.00 | 0.00 | 37 | 1003.0 |
| 20260504220656 | 19 | 284 | 0.0 | 0.0 | 0.00 | 0.00 | 0.00 | 36 | 1003.0 |
| 20260504220154 | 19 | 284 | 0.0 | 0.0 | 0.00 | 0.00 | 0.00 | 35 | 1003.1 |
| 20260504215651 | 19 | 284 | 0.0 | 3.2 | 0.00 | 0.00 | 0.00 | 33 | 1003.0 |
| 20260504215148 | 19 | 284 | 0.0 | 1.6 | 0.00 | 0.00 | 0.00 | 36 | 1003.0 |
| 20260504214643 | 19 | 284 | 0.0 | 0.0 | 0.00 | 0.00 | 0.00 | 36 | 1002.9 |
| 20260504214140 | 19 | 284 | 0.0 | 1.6 | 0.00 | 0.00 | 0.00 | 35 | 1002.9 |
| 20260504213637 | 19 | 284 | 0.0 | 0.0 | 0.00 | 0.00 | 0.00 | 36 | 1002.9 |
| 20260504213134 | 18 | 284 | 0.0 | 0.0 | 0.00 | 0.00 | 0.00 | 36 | 1002.7 |
| 20260504212630 | 19 | 284 | 0.0 | 1.6 | 0.00 | 0.00 | 0.00 | 33 | 1003.0 |
| 20260504212127 | 20 | 284 | 1.6 | 3.2 | 0.00 | 0.00 | 0.00 | 34 | 1003.2 |
| 20260504211625 | 20 | 284 | 0.0 | 1.6 | 0.00 | 0.00 | 0.00 | 32 | 1002.9 |
| 20260504211121 | 20 | 284 | 0.0 | 4.8 | 0.00 | 0.00 | 0.00 | 33 | 1003.0 |
| 20260504210619 | 20 | 284 | 3.2 | 9.7 | 0.00 | 0.00 | 0.00 | 33 | 1002.9 |
| 20260504210114 | 21 | 284 | 3.2 | 6.4 | 0.00 | 0.00 | 0.00 | 30 | 1002.9 |
| 20260504205612 | 20 | 284 | 1.6 | 1.6 | 0.00 | 0.00 | 0.00 | 31 | 1002.7 |
| 20260504205110 | 21 | 284 | 3.2 | 9.7 | 0.00 | 0.00 | 0.00 | 31 | 1002.8 |
| 20260504204608 | 20 | 284 | 1.6 | 6.4 | 0.00 | 0.00 | 0.00 | 31 | 1002.9 |
| 20260504204107 | 20 | 284 | 3.2 | 3.2 | 0.00 | 0.00 | 0.00 | 31 | 1002.8 |
| 20260504203605 | 19 | 284 | 0.0 | 3.2 | 0.00 | 0.00 | 0.00 | 34 | 1002.7 |
| 20260504203102 | 18 | 284 | 1.6 | 3.2 | 0.00 | 0.00 | 0.00 | 34 | 1003.0 |
| 20260504202557 | 19 | 284 | 3.2 | 4.8 | 0.00 | 0.00 | 0.00 | 33 | 1002.9 |
| 20260504202054 | 20 | 284 | 3.2 | 16.1 | 0.00 | 0.00 | 0.00 | 33 | 1002.9 |
| 20260504201551 | 20 | 284 | 0.0 | 3.2 | 0.00 | 0.00 | 0.00 | 32 | 1003.1 |
| 20260504201049 | 19 | 284 | 3.2 | 6.4 | 0.00 | 0.00 | 0.00 | 32 | 1003.0 |
| 20260504200545 | 20 | 284 | 0.0 | 0.0 | 0.00 | 0.00 | 0.00 | 33 | 1003.0 |
| 20260504200042 | 19 | 284 | 3.2 | 3.2 | 0.00 | 0.00 | 0.00 | 34 | 1003.2 |
| 20260504195538 | 18 | 284 | 0.0 | 6.4 | 0.00 | 0.00 | 0.00 | 35 | 1003.2 |
| 20260504195035 | 18 | 284 | 1.6 | 3.2 | 0.00 | 0.00 | 0.00 | 36 | 1003.2 |
| 20260504194531 | 19 | 284 | 4.8 | 6.4 | 0.00 | 0.00 | 0.00 | 34 | 1003.3 |
| 20260504194027 | 18 | 284 | 3.2 | 9.7 | 0.00 | 0.00 | 0.00 | 36 | 1003.2 |
| 20260504193523 | 18 | 284 | 0.0 | 6.4 | 0.00 | 0.00 | 0.00 | 36 | 1003.3 |
| 20260504193022 | 18 | 284 | 1.6 | 6.4 | 0.00 | 0.00 | 0.00 | 35 | 1003.3 |
| 20260504192520 | 19 | 284 | 11.3 | 14.5 | 0.00 | 0.00 | 0.00 | 35 | 1003.5 |
| 20260504192018 | 18 | 284 | 0.0 | 9.7 | 0.00 | 0.00 | 0.00 | 38 | 1003.2 |
| 20260504191516 | 18 | 284 | 3.2 | 9.7 | 0.00 | 0.00 | 0.00 | 37 | 1003.3 |
| 20260504191011 | 17 | 284 | 0.0 | 1.6 | 0.00 | 0.00 | 0.00 | 40 | 1003.3 |
| 20260504190508 | 17 | 284 | 0.0 | 3.2 | 0.00 | 0.00 | 0.00 | 39 | 1003.4 |
| 20260504190004 | 17 | 284 | 0.0 | 1.6 | 0.00 | 0.00 | 0.00 | 40 | 1003.5 |
| 20260504185501 | 17 | 284 | 0.0 | 6.4 | 0.00 | 0.00 | 0.00 | 41 | 1003.5 |
| 20260504184958 | 17 | 284 | 0.0 | 6.4 | 0.00 | 0.00 | 0.00 | 40 | 1003.6 |
| 20260504184453 | 17 | 284 | 1.6 | 3.2 | 0.00 | 0.00 | 0.00 | 40 | 1003.3 |
| 20260504183949 | 17 | 284 | 0.0 | 4.8 | 0.00 | 0.00 | 0.00 | 40 | 1003.5 |
| 20260504183446 | 18 | 284 | 0.0 | 6.4 | 0.00 | 0.00 | 0.00 | 39 | 1003.6 |
| 20260504182944 | 18 | 284 | 0.0 | 4.8 | 0.00 | 0.00 | 0.00 | 35 | 1003.7 |
| 20260504182440 | 18 | 284 | 3.2 | 6.4 | 0.00 | 0.00 | 0.00 | 35 | 1003.7 |
| 20260504181938 | 16 | 284 | 0.0 | 3.2 | 0.00 | 0.00 | 0.00 | 38 | 1003.7 |
| 20260504181435 | 16 | 284 | 3.2 | 6.4 | 0.00 | 0.00 | 0.00 | 39 | 1003.6 |
| 20260504180934 | 16 | 284 | 0.0 | 1.6 | 0.00 | 0.00 | 0.00 | 40 | 1003.8 |
| 20260504180432 | 16 | 284 | 3.2 | 6.4 | 0.00 | 0.00 | 0.00 | 39 | 1003.7 |
| 20260504175930 | 16 | 284 | 6.4 | 14.5 | 0.00 | 0.00 | 0.00 | 39 | 1003.9 |
| 20260504175427 | 16 | 284 | 4.8 | 6.4 | 0.00 | 0.00 | 0.00 | 40 | 1003.7 |
| 20260504174924 | 16 | 284 | 0.0 | 1.6 | 0.00 | 0.00 | 0.00 | 40 | 1003.8 |
| 20260504174422 | 17 | 284 | 3.2 | 4.8 | 0.00 | 0.00 | 0.00 | 38 | 1003.7 |
| 20260504173919 | 17 | 284 | 3.2 | 3.2 | 0.00 | 0.00 | 0.00 | 37 | 1003.8 |
| 20260504173415 | 18 | 284 | 8.0 | 9.7 | 0.00 | 0.00 | 0.00 | 35 | 1003.7 |
| 20260504172913 | 16 | 284 | 0.0 | 6.4 | 0.00 | 0.00 | 0.00 | 36 | 1003.5 |
| 20260504172409 | 16 | 284 | 1.6 | 9.7 | 0.00 | 0.00 | 0.00 | 38 | 1003.6 |
| 20260504171905 | 16 | 284 | 3.2 | 4.8 | 0.00 | 0.00 | 0.00 | 38 | 1003.8 |
| 20260504171403 | 16 | 284 | 0.0 | 4.8 | 0.00 | 0.00 | 0.00 | 38 | 1003.8 |
| 20260504170859 | 16 | 284 | 1.6 | 3.2 | 0.00 | 0.00 | 0.00 | 36 | 1003.8 |
| 20260504170356 | 16 | 284 | 3.2 | 3.2 | 0.00 | 0.00 | 0.00 | 35 | 1003.6 |
| 20260504160315 | 18 | 284 | 3.2 | 11.3 | 0.00 | 0.00 | 0.00 | 34 | 1003.3 |
| 20260504150739 | 15 | 284 | 3.2 | 4.8 | 0.00 | 0.00 | 0.00 | 40 | 1004.0 |
| 20260504150236 | 15 | 284 | 1.6 | 11.3 | 0.00 | 0.00 | 0.00 | 42 | 1004.3 |
| 20260504141206 | 13 | 284 | 3.2 | 6.4 | 0.00 | 0.00 | 0.00 | 48 | 1005.1 |
| 20260504140703 | 13 | 284 | 3.2 | 9.7 | 0.00 | 0.00 | 0.00 | 48 | 1005.0 |
| 20260504140158 | 13 | 284 | 1.6 | 11.3 | 0.00 | 0.00 | 0.00 | 50 | 1004.9 |
| 20260504130626 | 10 | 284 | 0.0 | 0.0 | 0.00 | 0.00 | 0.00 | 58 | 1005.8 |
| 20260504130123 | 9 | 284 | 0.0 | 0.0 | 0.00 | 0.00 | 0.00 | 61 | 1005.8 |
| 20260504110514 | 7 | 284 | 0.0 | 0.0 | 0.00 | 0.00 | 0.00 | 66 | 1006.2 |
| 20260504100436 | 4 | 284 | 0.0 | 1.6 | 0.00 | 0.00 | 0.00 | 73 | 1005.8 |
| 20260504081829 | 2 | 284 | 0.0 | 0.0 | 0.00 | 0.00 | 0.00 | 73 | 1006.4 |
| 20260504081326 | 2 | 284 | 0.0 | 0.0 | 0.00 | 0.00 | 0.00 | 75 | 1006.4 |
| 20260504080822 | 1 | 284 | 0.0 | 4.8 | 0.00 | 0.00 | 0.00 | 76 | 1006.6 |